When you browse on this site, cookies collect data to enhance your experience and personalize the content and advertising you see.
Visit our Privacy Policy to learn more. By continuing to use the site, you agree to this use of cookies and data.
  • In Österreich
  • Länderverzeichnis
  • Für 7 Tage
  • Wassertemperatur
  • Wetterkarte
  • News
  • Widgets
  • user-avatar
    Anmelden

    Stündliche Wetter Rakitno

    Heute, 18 Oktober, Freitag

    Zeit Temperatur Niederschläge Wind Luftdruck Luftfeuchtigkeit
    00:00 +11°C° 0 mm 1 m/S 752 mmHg 79%
    01:00 +11°C° 0 mm 1 m/S 752 mmHg 80%
    02:00 +11°C° 0 mm 1 m/S 753 mmHg 80%
    03:00 +11°C° 0 mm 1 m/S 752 mmHg 80%
    04:00 +10°C° 0 mm 1 m/S 752 mmHg 81%
    05:00 +10°C° 0 mm 1 m/S 752 mmHg 81%
    06:00 +11°C° 0 mm 1 m/S 752 mmHg 80%
    07:00 +10°C° 0 mm 2 m/S 752 mmHg 79%
    08:00 +10°C° 0 mm 2 m/S 753 mmHg 77%
    09:00 +13°C° 0 mm 2 m/S 752 mmHg 70%
    10:00 +15°C° 0 mm 2 m/S 752 mmHg 63%
    11:00 +17°C° 0 mm 2 m/S 752 mmHg 56%
    12:00 +18°C° 0 mm 2 m/S 752 mmHg 55%
    13:00 +18°C° 0 mm 2 m/S 752 mmHg 54%
    14:00 +19°C° 0 mm 2 m/S 751 mmHg 53%
    15:00 +18°C° 0 mm 2 m/S 751 mmHg 59%
    16:00 +17°C° 0 mm 2 m/S 751 mmHg 65%
    17:00 +16°C° 0 mm 2 m/S 751 mmHg 71%
    18:00 +15°C° 0 mm 2 m/S 751 mmHg 74%
    19:00 +15°C° 0 mm 2 m/S 750 mmHg 78%
    20:00 +14°C° 0 mm 2 m/S 750 mmHg 81%
    21:00 +14°C° 0 mm 2 m/S 750 mmHg 84%
    22:00 +12°C° 0 mm 3 m/S 750 mmHg 86%
    23:00 +12°C° 0 mm 3 m/S 750 mmHg 88%

    Morgen, 19 Oktober, Samstag

    Zeit Temperatur Niederschläge Wind Luftdruck Luftfeuchtigkeit
    00:00 +12°C° 0 mm 3 m/S 750 mmHg 88%
    01:00 +12°C° 0 mm 3 m/S 750 mmHg 88%
    02:00 +12°C° 0 mm 3 m/S 750 mmHg 88%
    03:00 +12°C° 0 mm 3 m/S 750 mmHg 84%
    04:00 +13°C° 0 mm 3 m/S 750 mmHg 80%
    05:00 +13°C° 0 mm 3 m/S 750 mmHg 76%
    06:00 +13°C° 0 mm 3 m/S 750 mmHg 74%
    07:00 +13°C° 0 mm 3 m/S 751 mmHg 72%
    08:00 +13°C° 0 mm 3 m/S 751 mmHg 70%
    09:00 +14°C° 0 mm 3 m/S 751 mmHg 67%
    10:00 +16°C° 0 mm 3 m/S 751 mmHg 63%
    11:00 +17°C° 0 mm 3 m/S 751 mmHg 59%
    12:00 +18°C° 0 mm 3 m/S 751 mmHg 58%
    13:00 +19°C° 0 mm 3 m/S 750 mmHg 58%
    14:00 +19°C° 0 mm 3 m/S 750 mmHg 57%
    15:00 +18°C° 0 mm 3 m/S 750 mmHg 61%
    16:00 +17°C° 0 mm 2 m/S 750 mmHg 65%
    17:00 +17°C° 0 mm 2 m/S 750 mmHg 69%
    18:00 +16°C° 0 mm 2 m/S 750 mmHg 71%
    19:00 +15°C° 0 mm 2 m/S 750 mmHg 74%
    20:00 +14°C° 0 mm 3 m/S 750 mmHg 76%
    21:00 +14°C° 0 mm 3 m/S 751 mmHg 76%
    22:00 +14°C° 0 mm 3 m/S 751 mmHg 77%
    23:00 +13°C° 0 mm 3 m/S 751 mmHg 77%

    übermorgen, 20 Oktober, Sonntag

    Zeit Temperatur Niederschläge Wind Luftdruck Luftfeuchtigkeit
    00:00 +13°C° 0 mm 3 m/S 751 mmHg 78%
    01:00 +13°C° 0 mm 3 m/S 751 mmHg 78%
    02:00 +13°C° 0 mm 3 m/S 751 mmHg 79%
    03:00 +12°C° 0 mm 3 m/S 751 mmHg 80%
    04:00 +12°C° 0 mm 3 m/S 751 mmHg 81%
    05:00 +12°C° 0 mm 3 m/S 751 mmHg 82%
    06:00 +12°C° 0 mm 3 m/S 751 mmHg 80%
    07:00 +12°C° 0 mm 3 m/S 751 mmHg 78%
    08:00 +12°C° 0 mm 3 m/S 751 mmHg 76%
    09:00 +14°C° 0 mm 3 m/S 751 mmHg 71%
    10:00 +17°C° 0 mm 3 m/S 751 mmHg 65%
    11:00 +18°C° 0 mm 3 m/S 751 mmHg 59%
    12:00 +19°C° 0 mm 3 m/S 751 mmHg 58%
    13:00 +20°C° 0 mm 3 m/S 751 mmHg 57%
    14:00 +21°C° 0 mm 3 m/S 751 mmHg 55%
    15:00 +20°C° 0 mm 3 m/S 751 mmHg 60%
    16:00 +19°C° 0 mm 3 m/S 751 mmHg 65%
    17:00 +17°C° 0 mm 2 m/S 751 mmHg 70%
    18:00 +17°C° 0 mm 2 m/S 751 mmHg 72%
    19:00 +16°C° 0 mm 2 m/S 751 mmHg 75%
    20:00 +15°C° 0 mm 2 m/S 751 mmHg 78%
    21:00 +15°C° 0 mm 2 m/S 751 mmHg 79%
    22:00 +15°C° 0 mm 2 m/S 751 mmHg 80%
    23:00 +14°C° 0 mm 2 m/S 751 mmHg 81%

    21 Oktober, Montag

    Zeit Temperatur Niederschläge Wind Luftdruck Luftfeuchtigkeit
    00:00 +14°C° 0 mm 2 m/S 751 mmHg 82%
    01:00 +13°C° 0 mm 3 m/S 751 mmHg 82%
    02:00 +13°C° 0 mm 3 m/S 751 mmHg 83%
    03:00 +12°C° 0 mm 3 m/S 751 mmHg 83%
    04:00 +12°C° 0 mm 3 m/S 751 mmHg 82%
    05:00 +12°C° 0 mm 3 m/S 751 mmHg 82%
    06:00 +12°C° 0 mm 3 m/S 751 mmHg 81%
    07:00 +12°C° 0 mm 3 m/S 751 mmHg 80%
    08:00 +13°C° 0 mm 3 m/S 751 mmHg 79%
    09:00 +16°C° 0 mm 3 m/S 751 mmHg 72%
    10:00 +18°C° 0 mm 4 m/S 751 mmHg 65%
    11:00 +19°C° 0 mm 4 m/S 751 mmHg 58%
    12:00 +21°C° 0 mm 4 m/S 750 mmHg 55%
    13:00 +22°C° 0 mm 4 m/S 750 mmHg 52%
    14:00 +23°C° 0 mm 4 m/S 750 mmHg 49%
    15:00 +21°C° 0 mm 4 m/S 750 mmHg 54%
    16:00 +20°C° 0 mm 3 m/S 749 mmHg 59%
    17:00 +18°C° 0 mm 2 m/S 749 mmHg 65%
    18:00 +18°C° 0 mm 2 m/S 749 mmHg 67%
    19:00 +17°C° 0 mm 3 m/S 749 mmHg 69%
    20:00 +16°C° 0 mm 3 m/S 749 mmHg 72%
    21:00 +16°C° 0 mm 3 m/S 749 mmHg 74%
    22:00 +14°C° 0 mm 3 m/S 749 mmHg 76%
    23:00 +15°C° 0 mm 2 m/S 749 mmHg 79%

    22 Oktober, Dienstag

    Zeit Temperatur Niederschläge Wind Luftdruck Luftfeuchtigkeit
    00:00 +13°C° 0 mm 3 m/S 749 mmHg 81%
    01:00 +13°C° 0 mm 3 m/S 750 mmHg 83%
    02:00 +13°C° 0 mm 3 m/S 750 mmHg 86%
    03:00 +12°C° 0 mm 3 m/S 750 mmHg 89%
    04:00 +12°C° 0 mm 3 m/S 750 mmHg 92%
    05:00 +12°C° 0 mm 3 m/S 751 mmHg 95%
    06:00 +12°C° 0 mm 4 m/S 751 mmHg 90%
    07:00 +12°C° 0 mm 5 m/S 752 mmHg 85%
    08:00 +11°C° 0 mm 6 m/S 753 mmHg 80%
    09:00 +13°C° 0 mm 6 m/S 753 mmHg 76%
    10:00 +13°C° 0 mm 5 m/S 754 mmHg 71%
    11:00 +14°C° 0 mm 5 m/S 755 mmHg 66%
    12:00 +14°C° 0 mm 5 m/S 755 mmHg 64%
    13:00 +14°C° 0 mm 4 m/S 756 mmHg 62%
    14:00 +14°C° 0 mm 4 m/S 756 mmHg 61%
    15:00 +13°C° 0 mm 3 m/S 756 mmHg 65%
    16:00 +12°C° 0 mm 3 m/S 757 mmHg 69%
    17:00 +12°C° 0 mm 2 m/S 757 mmHg 73%
    18:00 +10°C° 0 mm 2 m/S 757 mmHg 77%
    19:00 +11°C° 0 mm 1 m/S 757 mmHg 80%
    20:00 +10°C° 0 mm 1 m/S 758 mmHg 84%
    21:00 +10°C° 0 mm 1 m/S 758 mmHg 86%
    22:00 +9°C° 0 mm 1 m/S 758 mmHg 87%
    23:00 +9°C° 0 mm 1 m/S 758 mmHg 89%

    23 Oktober, Mittwoch

    Zeit Temperatur Niederschläge Wind Luftdruck Luftfeuchtigkeit
    00:00 +9°C° 0 mm 1 m/S 758 mmHg 90%
    01:00 +8°C° 0 mm 1 m/S 759 mmHg 90%
    02:00 +8°C° 0 mm 1 m/S 759 mmHg 91%
    03:00 +8°C° 0 mm 1 m/S 759 mmHg 92%
    04:00 +8°C° 0 mm 1 m/S 759 mmHg 92%
    05:00 +8°C° 0 mm 1 m/S 759 mmHg 93%
    06:00 +8°C° 0 mm 1 m/S 759 mmHg 92%
    07:00 +8°C° 0 mm 1 m/S 759 mmHg 92%
    08:00 +8°C° 0 mm 1 m/S 759 mmHg 92%
    09:00 +10°C° 0 mm 1 m/S 759 mmHg 84%
    10:00 +10°C° 0 mm 2 m/S 759 mmHg 77%
    11:00 +13°C° 0 mm 2 m/S 758 mmHg 69%
    12:00 +14°C° 0 mm 2 m/S 758 mmHg 65%
    13:00 +14°C° 0 mm 2 m/S 758 mmHg 61%
    14:00 +15°C° 0 mm 2 m/S 758 mmHg 57%
    15:00 +14°C° 0 mm 2 m/S 757 mmHg 62%
    16:00 +13°C° 0 mm 2 m/S 757 mmHg 67%
    17:00 +11°C° 0 mm 1 m/S 756 mmHg 72%
    18:00 +11°C° 0 mm 1 m/S 756 mmHg 74%
    19:00 +9°C° 0 mm 2 m/S 756 mmHg 76%
    20:00 +9°C° 0 mm 2 m/S 756 mmHg 78%
    21:00 +9°C° 0 mm 2 m/S 756 mmHg 76%
    22:00 +9°C° 0 mm 2 m/S 756 mmHg 75%
    23:00 +9°C° 0 mm 2 m/S 756 mmHg 74%
    Mehr zeigen